AEA147T LEMD-LEPA

Flight info

Callsign AEA147T
Flight time 0h 46m
Altitude 30000
Route NANDO2U NANDO T257 FENXE/N0440F320 T257 LASPO/N0405F260 M871 GODOX GODOX3M
Aircraft B738/M-SDE2E3FGHIRWXY/LB1

Departure

Time 2026-05-07 17:01
Airport Adolfo Suárez Madrid–Barajas Airport (LEMD)

Arrival

Time 2026-05-07 17:47
Airport Palma de Mallorca Airport (LEPA)
Time Latitude Longitude Altitude Speed Heading
2026-05-07 16:28 40.46426 -3.56831 1971 ft 0 kts 288°
2026-05-07 16:41 40.46424 -3.56822 1971 ft 2 kts 288°
2026-05-07 16:41 40.46417 -3.56801 1976 ft 2 kts 295°
2026-05-07 16:41 40.46410 -3.56782 1973 ft 2 kts 303°
2026-05-07 16:41 40.46400 -3.56765 1976 ft 2 kts 316°
2026-05-07 16:42 40.46386 -3.56752 1974 ft 2 kts 338°
2026-05-07 16:42 40.46370 -3.56747 1976 ft 2 kts
2026-05-07 16:42 40.46355 -3.56751 1975 ft 2 kts 23°
2026-05-07 16:42 40.46352 -3.56753 1975 ft 0 kts 27°
2026-05-07 16:49 40.46353 -3.56752 1975 ft 1 kts 26°
2026-05-07 16:50 40.46382 -3.56736 1974 ft 8 kts 19°
2026-05-07 16:50 40.46465 -3.56719 1971 ft 15 kts
2026-05-07 16:50 40.46593 -3.56709 1975 ft 21 kts
2026-05-07 16:50 40.46742 -3.56699 1975 ft 21 kts
2026-05-07 16:51 40.46801 -3.56651 1974 ft 5 kts 81°
2026-05-07 16:51 40.46803 -3.56576 1973 ft 11 kts 92°
2026-05-07 16:51 40.46814 -3.56479 1977 ft 11 kts 47°
2026-05-07 16:51 40.46887 -3.56457 1974 ft 12 kts
2026-05-07 16:52 40.46988 -3.56452 1977 ft 18 kts 358°
2026-05-07 16:52 40.47131 -3.56499 1980 ft 25 kts 331°
2026-05-07 16:52 40.47283 -3.56643 1985 ft 27 kts 323°
2026-05-07 16:52 40.47430 -3.56794 1991 ft 26 kts 322°
2026-05-07 16:53 40.47566 -3.56931 1992 ft 24 kts 322°
2026-05-07 16:53 40.47693 -3.57062 1997 ft 23 kts 322°
2026-05-07 16:53 40.47817 -3.57187 1999 ft 22 kts 323°
2026-05-07 16:53 40.47937 -3.57308 2003 ft 21 kts 322°
2026-05-07 16:54 40.48052 -3.57427 2001 ft 21 kts 322°
2026-05-07 16:54 40.48164 -3.57540 1999 ft 20 kts 322°
2026-05-07 16:54 40.48274 -3.57652 1995 ft 20 kts 323°
2026-05-07 16:54 40.48383 -3.57759 1992 ft 19 kts 325°
2026-05-07 16:55 40.48494 -3.57847 1992 ft 18 kts 332°
2026-05-07 16:55 40.48608 -3.57917 1996 ft 18 kts 344°
2026-05-07 16:55 40.48711 -3.57925 1998 ft 2 kts 360°
2026-05-07 16:55 40.48725 -3.57924 1998 ft 4 kts
2026-05-07 16:56 40.48758 -3.57870 1996 ft 13 kts 80°
2026-05-07 16:56 40.48763 -3.57716 1991 ft 20 kts 89°
2026-05-07 16:56 40.48764 -3.57316 1984 ft 28 kts 90°
2026-05-07 16:57 40.48766 -3.57036 1983 ft 32 kts 90°
2026-05-07 16:57 40.48766 -3.56742 1978 ft 32 kts 90°
2026-05-07 16:57 40.48768 -3.56455 1967 ft 31 kts 90°
2026-05-07 16:57 40.48771 -3.56191 1959 ft 23 kts 83°
2026-05-07 16:58 40.48804 -3.56140 1958 ft 5 kts
2026-05-07 16:58 40.48876 -3.56138 1958 ft 12 kts
2026-05-07 16:58 40.48957 -3.56139 1958 ft 14 kts 359°
2026-05-07 16:58 40.49104 -3.56140 1958 ft 39 kts 359°
2026-05-07 16:59 40.49338 -3.56141 1958 ft 22 kts 360°
2026-05-07 16:59 40.49409 -3.56022 1959 ft 20 kts 90°
2026-05-07 16:59 40.49411 -3.55872 1961 ft 14 kts 89°
2026-05-07 16:59 40.49406 -3.55748 1962 ft 13 kts 101°
2026-05-07 17:00 40.49352 -3.55654 1961 ft 13 kts 140°
2026-05-07 17:00 40.49218 -3.55519 1957 ft 57 kts 142°
2026-05-07 17:00 40.48663 -3.54958 1947 ft 142 kts 142°
2026-05-07 17:00 40.48043 -3.54335 2047 ft 183 kts 142°
2026-05-07 17:01 40.46945 -3.53240 2674 ft 215 kts 141°
2026-05-07 17:01 40.45801 -3.52072 3878 ft 203 kts 142°
2026-05-07 17:01 40.44651 -3.50890 4685 ft 217 kts 142°
2026-05-07 17:01 40.43444 -3.49630 5334 ft 225 kts 139°
2026-05-07 17:02 40.42451 -3.47972 5954 ft 237 kts 120°
2026-05-07 17:02 40.41628 -3.46066 6745 ft 242 kts 120°
2026-05-07 17:02 40.40790 -3.44145 7614 ft 244 kts 120°
2026-05-07 17:02 40.40009 -3.42073 8102 ft 266 kts 114°
2026-05-07 17:03 40.39258 -3.39753 8643 ft 282 kts 113°
2026-05-07 17:03 40.38506 -3.37355 9497 ft 286 kts 113°
2026-05-07 17:03 40.37745 -3.34931 10335 ft 291 kts 113°
2026-05-07 17:03 40.36939 -3.32389 10647 ft 315 kts 113°
2026-05-07 17:04 40.36071 -3.29674 10948 ft 336 kts 113°
2026-05-07 17:04 40.35185 -3.26917 11604 ft 344 kts 114°
2026-05-07 17:04 40.34243 -3.24001 12448 ft 347 kts 114°
2026-05-07 17:04 40.33290 -3.21062 13294 ft 351 kts 114°
2026-05-07 17:05 40.32330 -3.18109 14044 ft 356 kts 114°
2026-05-07 17:05 40.31346 -3.15091 14704 ft 362 kts 114°
2026-05-07 17:05 40.30346 -3.12032 15356 ft 368 kts 114°
2026-05-07 17:05 40.29333 -3.08936 16014 ft 373 kts 114°
2026-05-07 17:06 40.28322 -3.05851 16650 ft 379 kts 114°
2026-05-07 17:06 40.27265 -3.02628 17317 ft 384 kts 115°
2026-05-07 17:06 40.26201 -2.99390 17947 ft 390 kts 115°
2026-05-07 17:06 40.25116 -2.96090 18531 ft 396 kts 115°
2026-05-07 17:07 40.24035 -2.92806 19102 ft 400 kts 115°
2026-05-07 17:07 40.22929 -2.89452 19701 ft 404 kts 115°
2026-05-07 17:07 40.21795 -2.86014 20270 ft 408 kts 115°
2026-05-07 17:07 40.20677 -2.82631 20831 ft 412 kts 115°
2026-05-07 17:08 40.19516 -2.79123 21368 ft 417 kts 115°
2026-05-07 17:08 40.18436 -2.75861 21870 ft 421 kts 115°
2026-05-07 17:08 40.17267 -2.72337 22414 ft 425 kts 116°
2026-05-07 17:08 40.16087 -2.68781 22952 ft 429 kts 116°
2026-05-07 17:09 40.14887 -2.65171 23447 ft 433 kts 116°
2026-05-07 17:09 40.13677 -2.61537 23873 ft 437 kts 116°
2026-05-07 17:09 40.12467 -2.57905 23937 ft 436 kts 116°
2026-05-07 17:09 40.11250 -2.54255 23950 ft 438 kts 116°
2026-05-07 17:10 40.10036 -2.50622 23957 ft 438 kts 116°
2026-05-07 17:10 40.08824 -2.46997 23966 ft 438 kts 116°
2026-05-07 17:10 40.07599 -2.43342 23965 ft 438 kts 116°
2026-05-07 17:10 40.06375 -2.39692 23966 ft 439 kts 116°
2026-05-07 17:11 40.05152 -2.36050 23964 ft 439 kts 116°
2026-05-07 17:11 40.03961 -2.32508 23961 ft 439 kts 116°
2026-05-07 17:11 40.02696 -2.28749 23967 ft 438 kts 116°
2026-05-07 17:11 40.01470 -2.25111 23963 ft 438 kts 116°
2026-05-07 17:12 40.00246 -2.21485 23963 ft 438 kts 116°
2026-05-07 17:12 39.99034 -2.17907 23971 ft 437 kts 117°
2026-05-07 17:12 39.97648 -2.14293 23971 ft 435 kts 121°
2026-05-07 17:12 39.96224 -2.10901 23971 ft 435 kts 122°
2026-05-07 17:13 39.94735 -2.07460 23976 ft 435 kts 122°
2026-05-07 17:13 39.93247 -2.04035 23972 ft 436 kts 122°
2026-05-07 17:13 39.91760 -2.00597 23971 ft 436 kts 122°
2026-05-07 17:13 39.90287 -1.97167 23976 ft 436 kts 122°
2026-05-07 17:14 39.88804 -1.93697 23977 ft 436 kts 122°
2026-05-07 17:14 39.87328 -1.90236 24076 ft 440 kts 122°
2026-05-07 17:14 39.85833 -1.86728 24515 ft 443 kts 122°
2026-05-07 17:14 39.84338 -1.83221 25036 ft 443 kts 122°
2026-05-07 17:15 39.82838 -1.79705 25488 ft 446 kts 123°
2026-05-07 17:15 39.81324 -1.76166 25900 ft 449 kts 123°
2026-05-07 17:15 39.79858 -1.72741 26260 ft 453 kts 123°
2026-05-07 17:15 39.78325 -1.69162 26636 ft 456 kts 123°
2026-05-07 17:16 39.76814 -1.65641 27051 ft 458 kts 123°
2026-05-07 17:16 39.75212 -1.61908 27484 ft 460 kts 123°
2026-05-07 17:16 39.73650 -1.58273 27865 ft 463 kts 124°
2026-05-07 17:16 39.72090 -1.54650 28230 ft 466 kts 124°
2026-05-07 17:17 39.70483 -1.50927 28622 ft 468 kts 124°
2026-05-07 17:17 39.68911 -1.47289 28979 ft 470 kts 124°
2026-05-07 17:17 39.67313 -1.43594 29300 ft 473 kts 124°
2026-05-07 17:17 39.65687 -1.39837 29645 ft 476 kts 124°
2026-05-07 17:18 39.64065 -1.36092 29951 ft 477 kts 124°
2026-05-07 17:18 39.62427 -1.32316 29922 ft 482 kts 124°
2026-05-07 17:18 39.59159 -1.24781 29916 ft 475 kts 124°
2026-05-07 17:19 39.55914 -1.17327 29275 ft 480 kts 124°
2026-05-07 17:19 39.54236 -1.13496 26821 ft 502 kts 123°
2026-05-07 17:19 39.52487 -1.09470 25745 ft 506 kts 122°
2026-05-07 17:20 39.50901 -1.05550 25626 ft 476 kts 119°
2026-05-07 17:20 39.49617 -1.01722 25414 ft 453 kts 113°
2026-05-07 17:20 39.48655 -0.97885 24850 ft 440 kts 112°
2026-05-07 17:20 39.47302 -0.94569 25062 ft 400 kts 133°
2026-05-07 17:21 39.45500 -0.91893 25198 ft 396 kts 134°
2026-05-07 17:21 39.43972 -0.88845 25260 ft 414 kts 118°
2026-05-07 17:21 39.42993 -0.85280 25277 ft 431 kts 105°
2026-05-07 17:21 39.42605 -0.81405 25085 ft 433 kts 95°
2026-05-07 17:22 39.42507 -0.77528 24551 ft 432 kts 92°
2026-05-07 17:22 39.42487 -0.73644 23988 ft 432 kts 92°
2026-05-07 17:22 39.42485 -0.69765 23434 ft 430 kts 91°
2026-05-07 17:22 39.42475 -0.65931 23054 ft 423 kts 92°
2026-05-07 17:23 39.42448 -0.62156 22726 ft 416 kts 92°
2026-05-07 17:23 39.42406 -0.58436 22431 ft 414 kts 92°
2026-05-07 17:23 39.42351 -0.54686 22156 ft 420 kts 92°
2026-05-07 17:23 39.42287 -0.50895 21873 ft 423 kts 92°
2026-05-07 17:24 39.42220 -0.47104 21569 ft 420 kts 92°
2026-05-07 17:24 39.42152 -0.43389 21290 ft 416 kts 92°
2026-05-07 17:24 39.42051 -0.37960 20961 ft 411 kts 92°
2026-05-07 17:24 39.41909 -0.30585 20485 ft 406 kts 92°
2026-05-07 17:25 39.41764 -0.23303 20044 ft 406 kts 92°
2026-05-07 17:25 39.41613 -0.15939 19613 ft 410 kts 92°
2026-05-07 17:25 39.41458 -0.08592 19170 ft 409 kts 92°
2026-05-07 17:25 39.41299 -0.01237 18745 ft 408 kts 92°
2026-05-07 17:26 39.41141 0.05957 18341 ft 391 kts 93°
2026-05-07 17:26 39.40983 0.12864 17836 ft 376 kts 93°
2026-05-07 17:26 39.40824 0.19580 17348 ft 372 kts 94°
2026-05-07 17:26 39.40661 0.26283 16908 ft 376 kts 93°
2026-05-07 17:27 39.40492 0.33098 16470 ft 378 kts 93°
2026-05-07 17:27 39.40321 0.39850 15990 ft 377 kts 93°
2026-05-07 17:27 39.40029 0.51134 15224 ft 369 kts 93°
2026-05-07 17:27 39.39678 0.64180 14333 ft 356 kts 93°
2026-05-07 17:28 39.39321 0.76799 13458 ft 348 kts 93°
2026-05-07 17:28 39.38963 0.89007 12536 ft 344 kts 92°
2026-05-07 17:28 39.38583 1.01538 11614 ft 340 kts 92°
2026-05-07 17:28 39.38202 1.13720 10717 ft 337 kts 91°
2026-05-07 17:29 39.37814 1.25749 9909 ft 332 kts 91°
2026-05-07 17:29 39.37432 1.37226 9843 ft 319 kts 91°
2026-05-07 17:29 39.37668 1.46463 9911 ft 323 kts 79°
2026-05-07 17:29 39.38103 1.49333 9900 ft 325 kts 77°
2026-05-07 17:30 39.38562 1.52155 9641 ft 322 kts 77°
2026-05-07 17:30 39.39005 1.54975 9204 ft 319 kts 78°
2026-05-07 17:30 39.39425 1.57800 8672 ft 320 kts 78°
2026-05-07 17:30 39.39825 1.60624 8201 ft 318 kts 79°
2026-05-07 17:31 39.40208 1.63431 7775 ft 315 kts 79°
2026-05-07 17:31 39.40581 1.66221 7355 ft 313 kts 79°
2026-05-07 17:31 39.40945 1.68983 6919 ft 311 kts 79°
2026-05-07 17:31 39.41303 1.71728 6510 ft 309 kts 79°
2026-05-07 17:32 39.41655 1.74445 6096 ft 307 kts 79°
2026-05-07 17:32 39.42007 1.77167 5659 ft 305 kts 79°
2026-05-07 17:32 39.42354 1.79859 5225 ft 303 kts 79°
2026-05-07 17:32 39.42582 1.81632 5000 ft 302 kts 80°
2026-05-07 17:33 39.43049 1.85263 4922 ft 306 kts 80°
2026-05-07 17:33 39.43394 1.87963 4916 ft 302 kts 80°
2026-05-07 17:33 39.43731 1.90603 4902 ft 289 kts 80°
2026-05-07 17:33 39.44049 1.93093 4895 ft 274 kts 80°
2026-05-07 17:34 39.44351 1.95459 4894 ft 259 kts 80°
2026-05-07 17:34 39.44635 1.97694 4895 ft 246 kts 80°
2026-05-07 17:34 39.44905 1.99825 4892 ft 233 kts 80°
2026-05-07 17:34 39.44972 2.01866 4908 ft 220 kts 92°
2026-05-07 17:35 39.44897 2.03786 4894 ft 207 kts 92°
2026-05-07 17:35 39.44823 2.05569 4892 ft 190 kts 92°
2026-05-07 17:35 39.44751 2.07247 4916 ft 187 kts 92°
2026-05-07 17:35 39.44679 2.08907 4918 ft 187 kts 92°
2026-05-07 17:36 39.44606 2.10591 4927 ft 188 kts 92°
2026-05-07 17:36 39.44532 2.12302 4937 ft 188 kts 92°
2026-05-07 17:36 39.44459 2.13980 4932 ft 190 kts 92°
2026-05-07 17:36 39.44388 2.15685 4927 ft 190 kts 92°
2026-05-07 17:37 39.44318 2.17393 4925 ft 190 kts 92°
2026-05-07 17:37 39.44289 2.19086 4922 ft 187 kts 88°
2026-05-07 17:37 39.44328 2.20755 4889 ft 185 kts 87°
2026-05-07 17:37 39.44375 2.22404 4712 ft 184 kts 86°
2026-05-07 17:38 39.44424 2.24054 4484 ft 184 kts 86°
2026-05-07 17:38 39.44475 2.25730 4232 ft 187 kts 87°
2026-05-07 17:38 39.44528 2.27334 4037 ft 187 kts 86°
2026-05-07 17:38 39.44588 2.29017 3955 ft 184 kts 87°
2026-05-07 17:39 39.44644 2.30667 3785 ft 185 kts 86°
2026-05-07 17:39 39.44692 2.32322 3670 ft 182 kts 86°
2026-05-07 17:39 39.44735 2.33955 3518 ft 181 kts 87°
2026-05-07 17:39 39.44782 2.35597 3264 ft 184 kts 86°
2026-05-07 17:40 39.44824 2.37239 3165 ft 179 kts 86°
2026-05-07 17:40 39.44865 2.38890 3064 ft 187 kts 87°
2026-05-07 17:40 39.44903 2.40546 3016 ft 182 kts 87°
2026-05-07 17:40 39.44947 2.42167 2991 ft 178 kts 87°
2026-05-07 17:41 39.44988 2.43742 2988 ft 174 kts 86°
2026-05-07 17:41 39.45029 2.45319 2995 ft 175 kts 87°
2026-05-07 17:41 39.45071 2.46911 3000 ft 178 kts 87°
2026-05-07 17:41 39.45114 2.48508 3017 ft 178 kts 86°
2026-05-07 17:42 39.45178 2.50117 2975 ft 178 kts 77°
2026-05-07 17:42 39.45678 2.51563 3032 ft 177 kts 63°
2026-05-07 17:42 39.46247 2.52967 2987 ft 180 kts 63°
2026-05-07 17:42 39.46871 2.54404 2952 ft 182 kts 60°
2026-05-07 17:43 39.47527 2.55838 2724 ft 186 kts 59°
2026-05-07 17:43 39.48187 2.57249 2502 ft 186 kts 60°
2026-05-07 17:43 39.48854 2.58671 2237 ft 184 kts 59°
2026-05-07 17:43 39.49505 2.60049 2017 ft 176 kts 59°
2026-05-07 17:44 39.50132 2.61377 1768 ft 167 kts 59°
2026-05-07 17:44 39.50721 2.62624 1512 ft 155 kts 59°
2026-05-07 17:44 39.51267 2.63780 1372 ft 147 kts 59°
2026-05-07 17:44 39.51802 2.64911 1172 ft 150 kts 59°
2026-05-07 17:45 39.52342 2.66056 1015 ft 143 kts 58°
2026-05-07 17:45 39.52836 2.67100 773 ft 131 kts 58°
2026-05-07 17:45 39.53288 2.68055 626 ft 119 kts 59°
2026-05-07 17:45 39.53718 2.68966 476 ft 119 kts 58°
2026-05-07 17:46 39.54131 2.69844 315 ft 119 kts 58°
2026-05-07 17:46 39.54564 2.70751 113 ft 116 kts 58°
2026-05-07 17:46 39.54968 2.71598 38 ft 101 kts 59°
2026-05-07 17:46 39.55298 2.72296 37 ft 80 kts 58°
2026-05-07 17:47 39.55483 2.72748 37 ft 37 kts 78°
2026-05-07 17:47 39.55495 2.72901 37 ft 20 kts 88°
2026-05-07 17:47 39.55497 2.73047 37 ft 0 kts 89°
2026-05-07 17:49 39.55497 2.73052 37 ft 3 kts 88°
2026-05-07 17:49 39.55489 2.73105 37 ft 8 kts 133°
2026-05-07 17:50 39.55484 2.73117 35 ft 4 kts 104°
2026-05-07 17:50 39.55512 2.73199 37 ft 16 kts 59°
2026-05-07 17:50 39.55579 2.73342 36 ft 20 kts 58°
2026-05-07 17:50 39.55614 2.73496 37 ft 19 kts 128°
2026-05-07 17:51 39.55517 2.73567 36 ft 11 kts 178°
2026-05-07 17:51 39.55490 2.73541 37 ft 5 kts 235°
2026-05-07 17:51 39.55458 2.73476 36 ft 12 kts 237°
2026-05-07 17:51 39.55375 2.73481 37 ft 15 kts 150°
2026-05-07 17:52 39.55270 2.73565 37 ft 20 kts 150°
2026-05-07 17:52 39.55186 2.73595 37 ft 8 kts 214°
2026-05-07 17:52 39.55154 2.73543 37 ft 8 kts 237°
2026-05-07 17:52 39.55126 2.73485 37 ft 7 kts 238°
2026-05-07 17:53 39.55100 2.73430 37 ft 7 kts 236°
2026-05-07 17:53 39.55073 2.73378 37 ft 7 kts 240°
2026-05-07 17:53 39.55040 2.73370 37 ft 5 kts 164°
2026-05-07 17:53 39.54984 2.73392 36 ft 3 kts 164°
2026-05-07 17:54 39.54980 2.73393 35 ft 0 kts 165°